VNE403 MPTO-SVMI

Flight info

Callsign VNE403
Flight time 1h 43m
Altitude 35000
Route EGETA DCT BOGAL DCT UGSOL DCT UGREB DCT MUDIN DCT UGOSA DCT BOBAT DCT BATEY DCT COR DCT UGOSI DCT MUNIN DCT PBL ALDAK1
Aircraft MD83/M-SDFGIRWY/C

Departure

Time 2026-05-06 11:08
Airport Tocumen International Airport (MPTO)

Arrival

Time 2026-05-06 12:52
Airport Maiquetía Simón Bolívar International Airport (SVMI)
Time Latitude Longitude Altitude Speed Heading
2026-05-06 11:07 9.04940 -79.39163 45 ft 0 kts 29°
2026-05-06 11:07 9.04947 -79.39158 43 ft 14 kts 29°
2026-05-06 11:08 9.05301 -79.38955 44 ft 102 kts 29°
2026-05-06 11:08 9.06134 -79.38500 58 ft 167 kts 26°
2026-05-06 11:08 9.07209 -79.37900 649 ft 184 kts 28°
2026-05-06 11:08 9.08342 -79.37164 1305 ft 199 kts 36°
2026-05-06 11:09 9.09477 -79.36278 1925 ft 212 kts 38°
2026-05-06 11:09 9.10667 -79.35319 2458 ft 229 kts 38°
2026-05-06 11:09 9.11942 -79.34309 3252 ft 234 kts 38°
2026-05-06 11:09 9.13272 -79.33278 3868 ft 251 kts 38°
2026-05-06 11:10 9.14713 -79.32175 4514 ft 264 kts 37°
2026-05-06 11:10 9.16197 -79.31050 5400 ft 268 kts 37°
2026-05-06 11:10 9.17703 -79.29909 6299 ft 272 kts 37°
2026-05-06 11:10 9.19234 -79.28750 7128 ft 276 kts 38°
2026-05-06 11:11 9.20762 -79.27593 7941 ft 279 kts 38°
2026-05-06 11:11 9.22330 -79.26405 8752 ft 283 kts 38°
2026-05-06 11:11 9.23914 -79.25205 9604 ft 286 kts 39°
2026-05-06 11:11 9.25524 -79.23984 10294 ft 294 kts 39°
2026-05-06 11:12 9.27222 -79.22692 10553 ft 317 kts 39°
2026-05-06 11:12 9.29049 -79.21302 10800 ft 337 kts 39°
2026-05-06 11:12 9.30916 -79.19886 11423 ft 341 kts 39°
2026-05-06 11:12 9.32822 -79.18442 11778 ft 343 kts 39°
2026-05-06 11:13 9.34738 -79.16990 11893 ft 344 kts 39°
2026-05-06 11:13 9.36657 -79.15534 11927 ft 344 kts 39°
2026-05-06 11:13 9.38571 -79.14082 11928 ft 344 kts 39°
2026-05-06 11:13 9.40483 -79.12629 11929 ft 344 kts 39°
2026-05-06 11:14 9.42397 -79.11175 11929 ft 343 kts 39°
2026-05-06 11:14 9.44312 -79.09719 11924 ft 344 kts 39°
2026-05-06 11:14 9.46032 -79.08061 11944 ft 342 kts 56°
2026-05-06 11:14 9.47059 -79.05897 12430 ft 342 kts 76°
2026-05-06 11:15 9.47361 -79.03547 13258 ft 340 kts 86°
2026-05-06 11:15 9.47519 -79.01138 13931 ft 344 kts 86°
2026-05-06 11:15 9.47670 -78.98703 14525 ft 348 kts 86°
2026-05-06 11:15 9.47819 -78.96246 15123 ft 351 kts 86°
2026-05-06 11:16 9.47968 -78.93759 15708 ft 355 kts 86°
2026-05-06 11:16 9.48119 -78.91251 16289 ft 359 kts 86°
2026-05-06 11:16 9.48273 -78.88707 16854 ft 363 kts 86°
2026-05-06 11:16 9.48427 -78.86143 17417 ft 366 kts 86°
2026-05-06 11:17 9.48581 -78.83579 17967 ft 370 kts 86°
2026-05-06 11:17 9.48738 -78.80965 18477 ft 373 kts 86°
2026-05-06 11:17 9.48897 -78.78324 18944 ft 377 kts 86°
2026-05-06 11:17 9.49056 -78.75667 19417 ft 380 kts 86°
2026-05-06 11:18 9.49217 -78.72982 19866 ft 383 kts 86°
2026-05-06 11:18 9.49379 -78.70274 20337 ft 387 kts 86°
2026-05-06 11:18 9.49542 -78.67536 20787 ft 390 kts 86°
2026-05-06 11:18 9.49706 -78.64779 21237 ft 394 kts 86°
2026-05-06 11:19 9.49872 -78.61995 21683 ft 397 kts 86°
2026-05-06 11:19 9.50036 -78.59232 22115 ft 400 kts 86°
2026-05-06 11:19 9.50204 -78.56406 22547 ft 404 kts 86°
2026-05-06 11:19 9.50374 -78.53546 22983 ft 407 kts 86°
2026-05-06 11:20 9.50545 -78.50662 23405 ft 410 kts 86°
2026-05-06 11:20 9.50716 -78.47764 23768 ft 413 kts 86°
2026-05-06 11:20 9.50889 -78.44848 24137 ft 416 kts 86°
2026-05-06 11:20 9.51060 -78.41946 24483 ft 419 kts 86°
2026-05-06 11:21 9.51234 -78.38990 24830 ft 421 kts 86°
2026-05-06 11:21 9.51409 -78.36015 25168 ft 424 kts 86°
2026-05-06 11:21 9.51585 -78.33027 25509 ft 427 kts 86°
2026-05-06 11:21 9.51762 -78.30009 25846 ft 429 kts 86°
2026-05-06 11:22 9.51940 -78.26976 26175 ft 432 kts 86°
2026-05-06 11:22 9.52119 -78.23928 26486 ft 435 kts 86°
2026-05-06 11:22 9.52296 -78.20898 26791 ft 437 kts 86°
2026-05-06 11:22 9.52476 -78.17808 27098 ft 440 kts 86°
2026-05-06 11:23 9.52656 -78.14711 27410 ft 442 kts 86°
2026-05-06 11:23 9.52839 -78.11580 27701 ft 445 kts 86°
2026-05-06 11:23 9.53021 -78.08438 27990 ft 447 kts 86°
2026-05-06 11:23 9.53202 -78.05310 28272 ft 450 kts 86°
2026-05-06 11:24 9.53387 -78.02130 28556 ft 452 kts 86°
2026-05-06 11:24 9.53571 -77.98937 28826 ft 455 kts 86°
2026-05-06 11:24 9.53694 -77.96806 29010 ft 456 kts 86°
2026-05-06 11:24 9.53941 -77.92534 29359 ft 459 kts 86°
2026-05-06 11:25 9.54127 -77.89289 29629 ft 462 kts 86°
2026-05-06 11:25 9.54253 -77.87092 29807 ft 463 kts 86°
2026-05-06 11:25 9.54438 -77.83870 30054 ft 466 kts 86°
2026-05-06 11:25 9.54627 -77.80584 30295 ft 467 kts 86°
2026-05-06 11:26 9.54815 -77.77288 30543 ft 469 kts 86°
2026-05-06 11:26 9.55004 -77.73981 30784 ft 471 kts 86°
2026-05-06 11:26 9.55193 -77.70659 31064 ft 472 kts 86°
2026-05-06 11:26 9.55382 -77.67335 31381 ft 472 kts 86°
2026-05-06 11:27 9.55571 -77.64009 31708 ft 472 kts 86°
2026-05-06 11:27 9.55759 -77.60695 32044 ft 471 kts 86°
2026-05-06 11:27 9.55947 -77.57383 32364 ft 471 kts 86°
2026-05-06 11:27 9.56132 -77.54108 32662 ft 470 kts 86°
2026-05-06 11:28 9.56319 -77.50794 32954 ft 470 kts 86°
2026-05-06 11:28 9.56506 -77.47479 33255 ft 470 kts 86°
2026-05-06 11:28 9.56692 -77.44168 33544 ft 470 kts 86°
2026-05-06 11:28 9.56879 -77.40867 33820 ft 469 kts 85°
2026-05-06 11:29 9.57108 -77.37581 33900 ft 468 kts 84°
2026-05-06 11:29 9.57645 -77.31039 33908 ft 467 kts 84°
2026-05-06 11:30 9.58176 -77.24458 33908 ft 468 kts 84°
2026-05-06 11:30 9.58692 -77.17861 33904 ft 469 kts 84°
2026-05-06 11:31 9.59201 -77.11313 33907 ft 468 kts 84°
2026-05-06 11:31 9.59711 -77.04720 33903 ft 469 kts 84°
2026-05-06 11:32 9.60221 -76.98120 33902 ft 469 kts 84°
2026-05-06 11:32 9.60729 -76.91522 33899 ft 469 kts 84°
2026-05-06 11:33 9.61233 -76.84968 33899 ft 469 kts 84°
2026-05-06 11:33 9.61739 -76.78368 33901 ft 469 kts 85°
2026-05-06 11:34 9.62244 -76.71770 33900 ft 469 kts 85°
2026-05-06 11:34 9.62745 -76.65202 33901 ft 470 kts 85°
2026-05-06 11:35 9.63248 -76.58603 33893 ft 469 kts 85°
2026-05-06 11:35 9.63750 -76.51992 33896 ft 470 kts 84°
2026-05-06 11:36 9.64249 -76.45410 33893 ft 470 kts 85°
2026-05-06 11:36 9.64749 -76.38802 33896 ft 470 kts 85°
2026-05-06 11:37 9.65247 -76.32181 33895 ft 470 kts 85°
2026-05-06 11:37 9.65744 -76.25563 33891 ft 471 kts 85°
2026-05-06 11:38 9.66240 -76.18953 33893 ft 470 kts 85°
2026-05-06 11:38 9.66731 -76.12390 33895 ft 470 kts 85°
2026-05-06 11:39 9.67226 -76.05761 33890 ft 471 kts 85°
2026-05-06 11:39 9.67719 -75.99145 33886 ft 470 kts 85°
2026-05-06 11:40 9.68207 -75.92556 33888 ft 470 kts 85°
2026-05-06 11:40 9.68698 -75.85930 33885 ft 470 kts 85°
2026-05-06 11:41 9.69186 -75.79310 33888 ft 470 kts 85°
2026-05-06 11:41 9.69674 -75.72700 33888 ft 470 kts 85°
2026-05-06 11:42 9.70156 -75.66127 33886 ft 470 kts 85°
2026-05-06 11:42 9.70641 -75.59502 33888 ft 470 kts 85°
2026-05-06 11:43 9.71124 -75.52890 33888 ft 470 kts 85°
2026-05-06 11:43 9.71603 -75.46308 33889 ft 471 kts 85°
2026-05-06 11:44 9.72323 -75.36376 33891 ft 471 kts 85°
2026-05-06 11:44 9.72762 -75.29733 33893 ft 471 kts 85°
2026-05-06 11:45 9.73192 -75.23133 33895 ft 471 kts 85°
2026-05-06 11:45 9.73628 -75.16502 33898 ft 472 kts 85°
2026-05-06 11:46 9.74004 -75.09859 33898 ft 472 kts 86°
2026-05-06 11:46 9.74349 -75.03211 33894 ft 472 kts 86°
2026-05-06 11:47 9.74703 -74.96550 33889 ft 472 kts 86°
2026-05-06 11:47 9.75057 -74.89941 33889 ft 472 kts 86°
2026-05-06 11:48 9.75412 -74.83291 33890 ft 472 kts 86°
2026-05-06 11:48 9.75766 -74.76638 33889 ft 472 kts 86°
2026-05-06 11:49 9.76119 -74.69990 33888 ft 472 kts 86°
2026-05-06 11:49 9.76470 -74.63336 33891 ft 472 kts 86°
2026-05-06 11:50 9.76819 -74.56720 33890 ft 472 kts 86°
2026-05-06 11:50 9.77168 -74.50066 33895 ft 472 kts 86°
2026-05-06 11:51 9.77515 -74.43414 33894 ft 472 kts 86°
2026-05-06 11:51 9.77862 -74.36757 33896 ft 472 kts 86°
2026-05-06 11:52 9.77788 -74.30133 33895 ft 473 kts 93°
2026-05-06 11:52 9.77411 -74.23475 33897 ft 472 kts 93°
2026-05-06 11:53 9.77044 -74.16814 33894 ft 472 kts 93°
2026-05-06 11:53 9.76676 -74.10210 33896 ft 472 kts 93°
2026-05-06 11:54 9.76304 -74.03557 33895 ft 472 kts 93°
2026-05-06 11:54 9.75930 -73.96905 33895 ft 472 kts 93°
2026-05-06 11:55 9.75555 -73.90252 33895 ft 472 kts 93°
2026-05-06 11:55 9.75181 -73.83646 33894 ft 472 kts 93°
2026-05-06 11:56 9.74804 -73.76997 33891 ft 471 kts 93°
2026-05-06 11:56 9.74425 -73.70351 33898 ft 471 kts 93°
2026-05-06 11:57 9.74046 -73.63715 33900 ft 471 kts 93°
2026-05-06 11:57 9.73977 -73.57081 33902 ft 471 kts 84°
2026-05-06 11:58 9.74674 -73.50520 33910 ft 470 kts 83°
2026-05-06 11:58 9.75361 -73.43925 33923 ft 471 kts 84°
2026-05-06 11:59 9.76048 -73.37306 33929 ft 471 kts 83°
2026-05-06 11:59 9.76736 -73.30676 33947 ft 472 kts 83°
2026-05-06 12:00 9.77421 -73.24074 33953 ft 473 kts 83°
2026-05-06 12:00 9.78108 -73.17428 33978 ft 473 kts 83°
2026-05-06 12:01 9.78795 -73.10775 33991 ft 473 kts 83°
2026-05-06 12:01 9.79474 -73.04183 34000 ft 472 kts 84°
2026-05-06 12:02 9.80157 -72.97543 34003 ft 473 kts 84°
2026-05-06 12:02 9.80838 -72.90908 34003 ft 472 kts 84°
2026-05-06 12:03 9.81512 -72.84334 34004 ft 471 kts 84°
2026-05-06 12:03 9.82186 -72.77743 33997 ft 470 kts 84°
2026-05-06 12:04 9.82859 -72.71141 33991 ft 470 kts 84°
2026-05-06 12:04 9.83532 -72.64537 33981 ft 470 kts 84°
2026-05-06 12:05 9.84203 -72.57934 33971 ft 470 kts 84°
2026-05-06 12:05 9.84869 -72.51372 33962 ft 470 kts 84°
2026-05-06 12:06 9.85539 -72.44760 33956 ft 470 kts 84°
2026-05-06 12:06 9.86202 -72.38193 33953 ft 470 kts 84°
2026-05-06 12:07 9.86869 -72.31586 33945 ft 470 kts 84°
2026-05-06 12:07 9.87535 -72.24961 33947 ft 470 kts 84°
2026-05-06 12:08 9.88195 -72.18393 33945 ft 470 kts 84°
2026-05-06 12:08 9.88858 -72.11786 33948 ft 471 kts 84°
2026-05-06 12:09 9.89521 -72.05155 33943 ft 472 kts 84°
2026-05-06 12:09 9.90179 -71.98572 33941 ft 472 kts 84°
2026-05-06 12:10 9.90841 -71.91929 33943 ft 473 kts 84°
2026-05-06 12:10 9.91501 -71.85293 33942 ft 472 kts 84°
2026-05-06 12:11 9.92171 -71.78693 33940 ft 472 kts 83°
2026-05-06 12:11 9.93090 -71.72087 33940 ft 472 kts 81°
2026-05-06 12:12 9.93884 -71.66605 33941 ft 472 kts 82°
2026-05-06 12:12 9.94956 -71.58934 33943 ft 472 kts 82°
2026-05-06 12:13 9.95865 -71.52336 33945 ft 472 kts 82°
2026-05-06 12:13 9.96619 -71.46843 33942 ft 472 kts 82°
2026-05-06 12:14 9.97524 -71.40247 33943 ft 472 kts 82°
2026-05-06 12:14 9.98530 -71.33665 33946 ft 472 kts 81°
2026-05-06 12:15 9.99575 -71.27092 33948 ft 472 kts 81°
2026-05-06 12:15 10.00600 -71.20545 33947 ft 472 kts 81°
2026-05-06 12:16 10.01625 -71.13950 33952 ft 473 kts 81°
2026-05-06 12:16 10.02645 -71.07365 33956 ft 472 kts 81°
2026-05-06 12:17 10.03665 -71.00774 33968 ft 473 kts 81°
2026-05-06 12:17 10.04685 -70.94177 33975 ft 473 kts 81°
2026-05-06 12:18 10.05699 -70.87608 33981 ft 473 kts 81°
2026-05-06 12:18 10.06719 -70.80999 33992 ft 474 kts 81°
2026-05-06 12:19 10.07730 -70.74427 33994 ft 473 kts 81°
2026-05-06 12:19 10.08748 -70.67812 34002 ft 474 kts 81°
2026-05-06 12:20 10.09761 -70.61210 34006 ft 473 kts 81°
2026-05-06 12:20 10.10775 -70.54597 34012 ft 473 kts 81°
2026-05-06 12:21 10.11781 -70.48029 34016 ft 474 kts 81°
2026-05-06 12:21 10.12791 -70.41425 34016 ft 473 kts 81°
2026-05-06 12:22 10.13802 -70.34804 34017 ft 474 kts 81°
2026-05-06 12:22 10.14812 -70.28179 34016 ft 475 kts 81°
2026-05-06 12:23 10.15816 -70.21585 34016 ft 476 kts 81°
2026-05-06 12:23 10.16827 -70.14941 34015 ft 476 kts 81°
2026-05-06 12:24 10.17838 -70.08284 34013 ft 477 kts 81°
2026-05-06 12:24 10.18845 -70.01637 34016 ft 475 kts 81°
2026-05-06 12:25 10.19847 -69.95022 34024 ft 477 kts 81°
2026-05-06 12:25 10.20852 -69.88376 34027 ft 475 kts 81°
2026-05-06 12:26 10.21857 -69.81717 34032 ft 477 kts 81°
2026-05-06 12:26 10.22861 -69.75062 34038 ft 476 kts 80°
2026-05-06 12:27 10.23861 -69.68428 34043 ft 478 kts 81°
2026-05-06 12:27 10.24866 -69.61745 34053 ft 478 kts 81°
2026-05-06 12:28 10.25867 -69.55074 34067 ft 477 kts 81°
2026-05-06 12:28 10.26862 -69.48444 34076 ft 477 kts 81°
2026-05-06 12:29 10.27860 -69.41793 34077 ft 477 kts 81°
2026-05-06 12:29 10.28861 -69.35125 34080 ft 477 kts 81°
2026-05-06 12:30 10.29865 -69.28465 34077 ft 476 kts 81°
2026-05-06 12:30 10.30867 -69.21803 34068 ft 476 kts 81°
2026-05-06 12:31 10.31860 -69.15194 34066 ft 475 kts 81°
2026-05-06 12:31 10.32855 -69.08554 34061 ft 475 kts 81°
2026-05-06 12:32 10.33847 -69.01925 33592 ft 475 kts 81°
2026-05-06 12:32 10.34343 -68.98609 33267 ft 473 kts 81°
2026-05-06 12:32 10.34833 -68.95333 33022 ft 474 kts 81°
2026-05-06 12:33 10.35327 -68.92017 32770 ft 476 kts 81°
2026-05-06 12:33 10.35823 -68.88693 32528 ft 476 kts 81°
2026-05-06 12:33 10.36320 -68.85363 32285 ft 476 kts 81°
2026-05-06 12:33 10.36816 -68.82032 32043 ft 477 kts 81°
2026-05-06 12:34 10.37312 -68.78699 31806 ft 477 kts 81°
2026-05-06 12:34 10.37809 -68.75362 31568 ft 478 kts 81°
2026-05-06 12:34 10.38307 -68.72012 31331 ft 479 kts 81°
2026-05-06 12:34 10.38805 -68.68664 31102 ft 480 kts 81°
2026-05-06 12:35 10.39319 -68.65357 30878 ft 480 kts 80°
2026-05-06 12:35 10.39854 -68.62009 30642 ft 480 kts 80°
2026-05-06 12:35 10.40399 -68.58619 30411 ft 478 kts 80°
2026-05-06 12:35 10.40923 -68.55337 30192 ft 476 kts 80°
2026-05-06 12:36 10.41451 -68.52018 29941 ft 475 kts 80°
2026-05-06 12:36 10.41974 -68.48717 29665 ft 472 kts 80°
2026-05-06 12:36 10.42495 -68.45423 29388 ft 470 kts 80°
2026-05-06 12:36 10.43012 -68.42155 29125 ft 468 kts 80°
2026-05-06 12:37 10.43529 -68.38878 28493 ft 469 kts 80°
2026-05-06 12:37 10.44042 -68.35628 27634 ft 472 kts 80°
2026-05-06 12:37 10.44561 -68.32334 26878 ft 470 kts 80°
2026-05-06 12:37 10.45078 -68.29051 26122 ft 469 kts 80°
2026-05-06 12:38 10.45592 -68.25783 25491 ft 464 kts 80°
2026-05-06 12:38 10.46097 -68.22569 24890 ft 459 kts 80°
2026-05-06 12:38 10.46599 -68.19379 24292 ft 453 kts 80°
2026-05-06 12:38 10.47093 -68.16233 23704 ft 449 kts 80°
2026-05-06 12:39 10.47582 -68.13120 23039 ft 443 kts 80°
2026-05-06 12:39 10.48064 -68.10042 22414 ft 438 kts 80°
2026-05-06 12:39 10.48591 -68.07014 21784 ft 432 kts 76°
2026-05-06 12:39 10.49295 -68.04067 21153 ft 426 kts 75°
2026-05-06 12:40 10.49980 -68.01195 20549 ft 421 kts 75°
2026-05-06 12:40 10.50663 -67.98320 19953 ft 416 kts 75°
2026-05-06 12:40 10.51333 -67.95490 19368 ft 411 kts 74°
2026-05-06 12:40 10.51997 -67.92686 18759 ft 406 kts 74°
2026-05-06 12:41 10.52662 -67.89880 17735 ft 411 kts 74°
2026-05-06 12:41 10.53340 -67.87036 16608 ft 416 kts 75°
2026-05-06 12:41 10.54023 -67.84166 15733 ft 414 kts 76°
2026-05-06 12:41 10.54684 -67.81377 15041 ft 408 kts 76°
2026-05-06 12:42 10.55342 -67.78599 14334 ft 401 kts 77°
2026-05-06 12:42 10.55992 -67.75858 13639 ft 394 kts 77°
2026-05-06 12:42 10.56633 -67.73152 12725 ft 392 kts 77°
2026-05-06 12:42 10.57269 -67.70457 11830 ft 390 kts 78°
2026-05-06 12:43 10.57886 -67.67769 10980 ft 388 kts 80°
2026-05-06 12:43 10.58235 -67.65097 10170 ft 385 kts 87°
2026-05-06 12:43 10.58327 -67.62380 9346 ft 383 kts 89°
2026-05-06 12:43 10.58413 -67.59690 8688 ft 376 kts 89°
2026-05-06 12:44 10.58502 -67.57094 8472 ft 359 kts 89°
2026-05-06 12:44 10.58590 -67.54612 8298 ft 342 kts 89°
2026-05-06 12:44 10.58672 -67.52248 8147 ft 326 kts 89°
2026-05-06 12:44 10.58751 -67.49991 8011 ft 312 kts 89°
2026-05-06 12:45 10.58824 -67.47838 7883 ft 298 kts 89°
2026-05-06 12:45 10.58894 -67.45806 7764 ft 285 kts 89°
2026-05-06 12:45 10.59027 -67.41837 7063 ft 278 kts 89°
2026-05-06 12:46 10.59093 -67.39869 6677 ft 277 kts 90°
2026-05-06 12:46 10.59158 -67.37919 6290 ft 275 kts 90°
2026-05-06 12:46 10.59222 -67.35995 5898 ft 275 kts 90°
2026-05-06 12:46 10.59287 -67.34061 5516 ft 273 kts 88°
2026-05-06 12:47 10.59359 -67.32142 5170 ft 270 kts 89°
2026-05-06 12:47 10.59428 -67.30266 5045 ft 259 kts 89°
2026-05-06 12:47 10.59486 -67.28477 4931 ft 248 kts 90°
2026-05-06 12:47 10.59543 -67.26756 4813 ft 238 kts 90°
2026-05-06 12:48 10.59596 -67.25089 4581 ft 234 kts 90°
2026-05-06 12:48 10.59650 -67.23464 4323 ft 232 kts 90°
2026-05-06 12:48 10.59703 -67.21807 4043 ft 231 kts 89°
2026-05-06 12:48 10.59756 -67.20200 3762 ft 230 kts 90°
2026-05-06 12:49 10.59809 -67.18580 3483 ft 229 kts 89°
2026-05-06 12:49 10.59862 -67.16955 3189 ft 230 kts 89°
2026-05-06 12:49 10.59915 -67.15322 2888 ft 231 kts 89°
2026-05-06 12:49 10.59969 -67.13687 2595 ft 231 kts 89°
2026-05-06 12:50 10.60022 -67.12061 2312 ft 230 kts 89°
2026-05-06 12:50 10.60075 -67.10426 2017 ft 231 kts 88°
2026-05-06 12:50 10.60129 -67.08789 1709 ft 232 kts 88°
2026-05-06 12:50 10.60182 -67.07170 1398 ft 232 kts 88°
2026-05-06 12:51 10.60241 -67.05524 1079 ft 233 kts 86°
2026-05-06 12:51 10.60288 -67.03888 798 ft 232 kts 88°
2026-05-06 12:51 10.60348 -67.02267 507 ft 225 kts 88°
2026-05-06 12:51 10.60391 -67.00747 283 ft 200 kts 88°
2026-05-06 12:52 10.60420 -66.99565 204 ft 108 kts 89°
2026-05-06 12:52 10.60432 -66.99282 188 ft 1 kts 76°
2026-05-06 12:52 10.60435 -66.99203 193 ft 20 kts 107°
2026-05-06 12:52 10.60324 -66.99123 188 ft 14 kts 165°
2026-05-06 12:53 10.60318 -66.99123 190 ft 0 kts 173°
2026-05-06 12:54 10.60261 -66.99117 189 ft 26 kts 177°
2026-05-06 12:54 10.60085 -66.99088 203 ft 23 kts 165°
2026-05-06 12:54 10.59915 -66.99051 201 ft 30 kts 168°
2026-05-06 12:54 10.59820 -66.99006 205 ft 6 kts 121°
2026-05-06 12:55 10.59816 -66.98999 202 ft 0 kts 118°